Main page
METAR-TAF:

METAR-TAF

Airports :

Bandar Lengeh Airport

Bandar Lengeh, Iran

latitude: 26-35N, longitude: 054-50E, elevation: 14 m

Current weather observation

The report was made 30 minutes ago, at 00:00 UTC
Wind 4 kt from the North
Temperature 15°C
Humidity 59%
Pressure 1015 hPa
Visibility: 8000 m

METAR: OIBL 230000Z 01004KT 8000 NSC 15/07 Q1015

Time: 04:00 (00:30 UTC)


TAF: missing

Weather observations and forecasts of more than 4000 airports (METAR and TAF reports).

The available stations are represented by yellow and red dots on the map.

Hover mouse over dot to see the name of the station.

Then click to see weather observations and forecasts.

To change the map : click on the green buttons with a black cross to zoom in, on the green button with a dash to zoom out, or on the green arrows for adjacent maps.


METAR-TAF: